#timestamp,LO_Frequency,Hit,StdDev 
1550372415.6,286047000.8,N
1550372435.4,286046998.8,N
1550372455.3,286046999.2,N
1550372475.1,286046997.1,N
1550372495.8,286046999.3,N
1550372515.4,286046996.9,N
1550372535.2,286046999.3,N
1550372555.0,286047000.7,N
1550372555.9,286047000.7,N
1550372575.8,286046998.7,N
1550372595.6,286046998.8,N
1550372615.5,286046998.2,N
1550372635.3,286046998.6,N
1550372655.1,286046998.9,N
1550372675.9,286047001.1,N
1550372695.7,286047001.2,N
1550372715.5,286046998.3,N
1550372735.4,286046998.6,N
1550372755.2,286046999.0,N
1550372775.1,286046998.3,N
1550372776.0,286046998.3,N
1550372795.8,286046998.7,N
1550372815.6,286046999.4,N
1550372835.5,286047000.7,N
1550372855.3,286046998.2,N
1550372875.1,286047000.8,N
1550372895.9,286047000.3,N
1550372915.7,286047000.2,N
1550372935.6,286047002.7,N
1550372955.4,286047002.0,N
1550372975.2,286047002.3,N
1550372995.1,286047001.4,N
1550372996.0,286047001.4,N
1550373015.8,286047004.2,N
1550373035.6,286047001.9,N
1550373055.5,286047004.1,N
1550373075.3,286047002.2,N
1550373095.2,286046999.7,N
1550373115.9,286047002.1,N
1550373135.7,286047001.6,N
1550373155.6,286047002.1,N
1550373175.4,286047001.6,N
1550373195.2,286047002.6,N
1550373215.1,286046998.1,N
1550373216.0,286046998.1,N
1550373235.8,286046999.9,N
1550373255.7,286046999.8,N
1550373275.5,286047001.0,N
1550373295.3,286047001.0,N
1550373315.2,286046999.9,N
1550373335.0,286047001.6,N
1550373335.9,286047001.6,N
1550373355.7,286046999.7,N
1550373375.6,286047001.5,N
1550373395.4,286047002.1,N
1550373415.3,286047001.5,N
1550373435.1,286047002.2,N
1550373455.8,286047004.4,Y
1550373475.7,286047000.2,P
1550373495.5,286047000.3,N
1550373515.4,286047000.0,N
1550373535.2,286047001.9,Y
1550373555.0,286047001.6,P
1550373555.9,286047001.6,N
1550373575.8,286046999.9,N
1550373595.6,286047002.7,Y
1550373615.5,286046999.0,P
1550373635.3,286046998.7,N
1550373655.1,286046997.4,N
1550373675.9,286046995.4,Y
1550373695.7,286046997.0,P
1550373715.6,286046996.5,P
1550373735.4,286046999.0,N
1550373755.2,286047004.0,Y
1550373775.1,286047005.5,P
1550373776.0,286047005.5,N
1550373795.8,286047007.6,N
1550373815.7,286047008.8,N
1550373835.5,286047004.6,N
1550373855.3,286047007.6,N
1550373875.2,286047008.5,N
1550373895.0,286047008.3,N
1550373895.9,286047008.3,N
1550373915.8,286047007.9,N
1550373935.6,286047008.3,N
1550373955.4,286047007.3,N
1550373975.3,286047006.9,N
1550373995.1,286047007.1,N
1550374015.8,286047005.0,N
1550374035.7,286047005.0,N
1550374055.5,286047005.8,N
1550374075.4,286047005.4,N
1550374095.2,286047005.8,N
1550374115.0,286047005.5,N
1550374115.9,286047005.5,N
1550374135.8,286047001.3,N
1550374155.6,286047002.5,N
1550374175.4,286047002.5,N
1550374195.3,286047003.8,N
1550374215.1,286047003.5,N
1550374235.9,286047001.4,N
1550374255.7,286047002.1,N
1550374275.5,286046999.9,N
1550374295.4,286047002.6,N
1550374315.2,286047002.6,N
1550374335.0,286047003.7,N
1550374335.9,286047003.7,N
1550374355.8,286047005.7,N
1550374375.6,286047005.1,N
1550374395.5,286047005.4,N
1550374415.3,286047007.5,Y
1550374435.1,286046999.9,P
1550374455.9,286047000.2,N
1550374475.7,286047000.6,N
1550374495.6,286046999.8,N
1550374515.4,286047002.5,N
1550374535.2,286046999.8,N
1550374555.1,286047001.0,N
1550374556.0,286047001.0,N
1550374575.8,286047001.2,N
1550374595.6,286047002.1,N
1550374615.6,286047000.9,N
1550374635.4,286047001.1,N
1550374655.3,286046999.7,N
1550374675.1,286047002.5,N
1550374676.0,286047002.5,N
1550374695.8,286047003.0,N
1550374715.7,286047001.4,N
1550374735.5,286046999.9,N
1550374755.3,286047001.0,N
1550374775.2,286046998.4,N
1550374795.0,286047001.0,N
1550374795.9,286047001.0,N
1550374815.8,286046998.4,N
1550374835.6,286046998.4,N
1550374855.4,286047000.7,N
1550374875.3,286047002.3,N
1550374895.1,286047001.3,N
1550374915.8,286047003.9,N
1550374935.7,286047003.4,N
1550374955.5,286047001.6,N
1550374975.4,286047001.7,N
1550374995.2,286047004.2,Y
1550375015.0,286046998.1,P
1550375015.9,286046998.1,N
1550375035.8,286047001.2,N
1550375055.6,286047001.0,N
1550375075.4,286047004.4,N
1550375095.3,286047001.8,N
1550375115.1,286047003.3,N
1550375135.9,286047003.9,N
1550375155.7,286047001.7,N
1550375175.5,286047002.3,N
1550375195.4,286047000.0,N
1550375215.2,286047000.1,N
1550375235.1,286047002.1,N
1550375255.9,286047002.3,N
1550375275.7,286047002.6,N
1550375295.6,286047001.5,N
1550375315.4,286047001.3,N
1550375335.2,286047004.1,N
1550375355.1,286047004.8,N
1550375356.0,286047004.8,N
1550375375.8,286047005.5,N
1550375395.6,286046999.7,N
1550375415.5,286047000.9,N
1550375435.3,286047000.6,N
1550375455.2,286047002.6,N
1550375475.9,286047002.7,N
1550375495.7,286046998.2,N
1550375515.6,286047000.7,N
1550375535.4,286047000.7,N
1550375555.2,286047000.2,N
1550375575.1,286047000.0,N
1550375576.0,286047000.0,N
1550375595.8,286047001.0,N
1550375615.7,286046998.6,N
1550375635.5,286047001.6,N
1550375655.3,286047004.0,N
1550375675.2,286047003.9,N
1550375695.0,286047006.0,Y
1550375695.9,286047006.0,P
1550375715.8,286047000.2,N
1550375735.6,286046998.2,N
1550375755.4,286046998.1,N
1550375775.3,286047000.2,N
1550375795.1,286047001.8,N
1550375815.9,286047004.1,N
1550375835.7,286047003.8,N
1550375855.5,286047002.0,N
1550375875.4,286047003.6,N
1550375895.2,286047003.6,N
1550375915.0,286047002.4,N
1550375916.0,286047002.4,N
1550375935.8,286047001.2,N
1550375955.6,286046999.6,N
1550375975.5,286046998.1,N
1550375995.3,286047000.6,N
